Location: ShareBrained
(45.5589°N, 122.6491°W)
Time: 08:22:49
(UTC-08:00)

NOAA 19 - Pass Details

Date: 26 January 2020
Orbit: 840 x 861 km, 99.2° (Epoch: 25 February)

Event Time Altitude Azimuth Distance (km) Brightness Sun altitude
Rises 17:32:56 0° 181° (S) 3,407 8.7 -4.8°
Reaches altitude 10° 17:35:24 10° 187° (S) 2,472 8.1 -5.2°
Maximum altitude 17:40:39 46° 260° (W) 1,132 6.5 -6.1°
Drops below altitude 10° 17:45:55 10° 334° (NNW) 2,477 7.7 -6.9°
Sets 17:48:23 0° 340° (NNW) 3,414 8.4 -7.3°
